sat.trackr.live / text

‹ back to catalog

STARLINK-3806

NORAD 52378 · 2022-045AZ

PAYLOAD ACTIVE UNKNOWN

§ Identity

Operator
Country
US
Launch date
2022-04-29
Launch site
AFETR
Launch vehicle
Mass (kg)
RCS (m²)

Purposes: comms

External: N2YO · Heavens-Above · Gunter

§ Orbital elements

Epoch: 2026-09-20T01:55:35.505120Z

Period
93.85 min
Inclination
53.1614°
Eccentricity
0.0001076
Mean motion
15.34379372 rev/d
Perigee alt
462.0 km
Apogee alt
463.5 km
Semi-major
6,840.9 km
B*
1.1600e-4
RAAN
27.3355°
Arg perigee
84.8704°
Mean anomaly
275.2421°
Rev number
24,539

§ Raw data

STARLINK-38061 52378U 22045AZ  26263.08027205  .00003542  00000+0  11600-3 0  99952 52378  53.1614  27.3355 0001076  84.8704 275.2421 15.34379372245397

JSON: /api/v1/satellites/52378 · /tle

For live sub-satellite position, see the globe view (requires WebGL).

§ Visibility from observer

Set your observer location to see the next 7 days of passes ≥ 10°. The values pass through the URL so the page stays shareable.

No JS? Fill the form by hand. The geolocation button needs JavaScript.